星链-32896 (STARLINK-32896)

导读

STARLINK-32896是美国SpaceX公司于2025年2月11日发射的星链系列低轨卫星,运行于约550公里高度的近地轨道,配备Ku/Ka工作频段与星间激光链路,属于星链星座组网卫星。它依托星链低轨优势,可提供低延迟互联网接入,助力星链全球覆盖目标,支持直连手机等移动设备联网服务,推动星链移动业务布局,进一步拓展太空通信基础设施能力。

Basic Information
目录编号:
62959
目录名称:
STARLINK-32896
国际标识:
2025-029M
轨道中心:
EARTH
卫星名称:
星链-32896
卫星全名:
星链-32896 (STARLINK-32896)
卫星状态:
在轨 (已飞行570 天)
发射日期:
2025-02-11 UTC
国别 :
美国 (US)
星等 :
--
Orbit Information
数据来源 国际轨道数据 AOE轨道数据
星历时间 2026-09-03T13:27:02+0800
22小时前
查看轨道信息
2026-08-31T18:00:00+0800
3天前
查看轨道信息
半长轴 6840.794km 6840.923km
偏心率 0.0001262 0.0001594
轨道倾角 53.157° 53.161°
近地点辐角 100.296° 94.785°
升交点赤经 126.803° 139.940°
平近点角 259.819° 212.266°
近地点 461.793km 461.695km
远地点 463.521km 463.877km
周期 93.847分钟 93.849分钟
每日圈数 15.344158 15.343722
Detailed Information
固有亮度:
5
最大亮度:
2.5
卫星平台:
Starlink V1.0
覆盖范围:
全球
运营商:
太空探索技术公司
运营商所在国:
美国
制造商(研发单位):
太空探索技术公司
制造商所在国:
美国
使用方式:
暂无
Satellite Introduction
Starlink 计划是 SpaceX 推出的全球卫星互联网项目,通过发射低轨道卫星,为全球尤其是偏远地区提供高速、低延迟的互联网服务。自 2019 年起,Starlink 已部署数千颗卫星,旨在缩小全球数字鸿沟,推动互联网普及。该项目还为军事、航空等行业提供通信支持,带来广泛经济效益。
2D Orbit Map
3D Orbit Map
Orbit Altitude Analysis Chart
Orbit Inclination Analysis Chart
Orbit Comprehensive Analysis Chart
View Comprehensive Chart
Conjunction Data List
Event ID Objects TCA Miss Dist (km) Collision Risk Probability Collision Risk Index (CRI) Action
CDM_260904-121206-295906-982921
2026-09-04T
12:12:57+0000
0.952 km
远距离
1.967512E-5 中风险 0.61
CDM_260904-083106-058506-295922
2026-09-04T
08:31:20+0000
1.270 km
极远距离
7.357675E-6 低风险 0.52
CDM_260904-041605-968006-295922
OBJECT D (59680)
2026-09-04T
04:16:31+0000
1.780 km
极远距离
3.895219E-6 低风险 0.47
CDM_260904-153306-058506-295922
2026-09-04T
15:33:25+0000
1.685 km
极远距离
2.966689E-6 低风险 0.44
CDM_260904-191506-295906-982921
2026-09-04T
19:15:01+0000
1.883 km
极远距离
2.157635E-6 低风险 0.42
CDM_260904-204806-295906-982921
2026-09-04T
20:48:48+0000
2.109 km
极远距离
1.634676E-6 低风险 0.39
CDM_260904-164905-299006-295921
2026-09-04T
16:49:48+0000
2.901 km
极远距离
1.123977E-6 低风险 0.36
CDM_260903-111705-326506-295921
2026-09-03T
11:17:08+0000
2.824 km
极远距离
5.072168E-7 极低风险 0.29